Location: ?????????
(38.5999°N, 22.7695°E)
Time: 17:44:36
(UTC+00:00)

Cosmos 1782 Rocket - Pass Details

Date: 23 May 2024
Orbit: 602 x 629 km, 82.5° (Epoch: 24 June)

Event Time Altitude Azimuth Distance (km) Brightness Sun altitude
Rises 00:15:56 0° 355° (N) 2,889 7.9 -25.4°
Reaches altitude 10° 00:18:11 10° 359° (N) 1,975 6.9 -25.2°
Maximum altitude 00:22:32 66° 82° (E) 667 3.7 -24.7°
Enters shadow 00:22:44 65° 100° (E) 672 3.7 -24.7°
